Regional Weather Roundup
Issued by NWS Newport/Morehead, NC

Current Version | Previous Version | Graphics & Text | Print | Product List | Glossary On
Versions: 1 2 3 4 5 6 7 8 9 10 11 12 13 14 15 16 17 18 19 20 21 22 23 24 25 26 27 28 29 30 31 32 33 34 35 36 37 38 39 40 41 42 43 44 45 46 47 48 49 50
486 ASUS42 KMHX 131713 RWRMHX WEATHER ROUNDUP FOR EASTERN NORTH CAROLINA NATIONAL WEATHER SERVICE NEWPORT/MOREHEAD CITY NC 1200 PM EST SAT FEB 13 2016 NOTE: "FAIR" INDICATES FEW OR NO CLOUDS BELOW 12,000 FEET WITH NO SIGNIFICANT WEATHER AND/OR OBSTRUCTIONS TO VISIBILITY NCZ015>017-031-032-045>047-102-103-131800- NORTH COAST CITY SKY/WX TMP DP RH WIND PRES REMARKS EDENTON SUNNY 34 8 34 N22 30.25F ELIZABETH CITY SUNNY 30 8 39 NW22G28 30.25R WCI 17 KITTY HAWK NOT AVBL MANTEO NOT AVBL $$ NCZ045>047-081-094-103-104-131800- CENTRAL COAST CITY SKY/WX TMP DP RH WIND PRES REMARKS FRISCO PTSUNNY 34 19 54 N9 30.24R SWANQUARTER N/A 34 N/A N/A NW8G15 30.21S $$ NCZ095-097-098-100-101-131800- SOUTHERN COAST CITY SKY/WX TMP DP RH WIND PRES REMARKS BEAUFORT SUNNY 36 17 46 NW21 30.25S CEDAR ISLAND N/A 34 N/A N/A NW20G31 30.30R JACKSONVILLE SUNNY 36 11 35 NW21G31 30.27R PINEY ISLAND SUNNY N/A N/A N/A NW22G30 30.25R WILMINGTON SUNNY 41 18 39 NW18 30.27R $$ NCZ011>013-027>030-043-044-078>080-089-090>093-098-131800- COASTAL PLAIN CITY SKY/WX TMP DP RH WIND PRES REMARKS AHOSKIE SUNNY 31 -1 25 NW8 30.28S CLINTON SUNNY 34 16 46 NW8G18 30.31S ELIZABETHTOWN SUNNY 37 14 39 NW8G18 30.30S GOLDSBORO SUNNY 32 5 32 NW15G21 30.28S GREENVILLE SUNNY 32 5 32 NW12G22 30.29S HAVELOCK MOSUNNY 36 11 35 NW21 30.27R KENANSVILLE SUNNY 33 17 53 N9 30.31S KINSTON SUNNY 32 10 40 N13G25 30.30R NEW BERN MOSUNNY 34 10 37 NW17G28 30.29R RICHLANDS SUNNY 34 16 47 CALM 30.29R ROCKY MOUNT SUNNY 32 2 27 NW17G26 30.31S WASHINGTON SUNNY 32 7 35 NW13G18 30.27S WHITEVILLE SUNNY 38 15 39 N10G17 30.28S $$ AMZ130-135-150-152-154-156-158-170-250-252-270-ANZ085-086-088-633-658-670-131800- MARINE OBSERVATIONS STATION/POSITION TIME TEMP WIND PRES WAVE SWELL AIR SEA DIR/SP/G HT/PER HT/PER (UTC) (F) (DEG/KT/KT) (MB) (FT/S) (FT/S) CHESAPEAKE LIGHT 1700 27 320/ 24/ 28 1024.2 64 E VA BEACH 1650 30 48 320/ 25/ 33 1021.5 10/ 8 DUCK 1600 28 330/ 22/ 26 1022.6 2 E DUCK 1611 42 N/A 5/ 6 OREGON INLET 1600 30 37 320/ 20/ 24 1023.4 13E OREGON INLT 1700 45 N/A 7/ 6 2/11 HATTERAS CG 1600 31 43 340/ 20/ 22 1023.2 DIAMOND BUOY 1650 34 71 350/ 21/ 29 1023.2 6/ 8 CAPE LOOKOUT NOT AVBL BEAUFORT LAB 1600 34 42 340/ 12/ 17 1023.5 30 SE NEW RVR IN 1608 39 62 1023.5 30 SE NEW RVR IN 1625 62 N/A 5/ 5 27 SE WRIGHTSVLE 1608 41 60 360/ 16/ 25 1022.7 5 SE WRIGHTSVLE 1608 38 50 360/ 14/ 19 1024.5 225 S CAPE HAT 1650 57 68 320/ 19/ 25 N/A 9/ 8 41 SE CHARLESTON 1650 45 67 360/ 16/ 19 1024.4 5/ 6 2/10 $$

USA.gov is the U.S. government's official web portal to all federal, state and local government web resources and services.